| time (UTC) | temp F | wind direction | speed knots | gust knots | rain 1hr in | rain 24hr in | rain mn in | humidity % | barometer mb |
| 20260505201030 | 78 | 86 | 0.9 | 0.9 | 0.00 | 0.00 | 0.00 | 51 | 1017.1 |
| 20260505200528 | 78 | 14 | 3.5 | 4.3 | 0.00 | 0.00 | 0.00 | 51 | 1017.2 |
| 20260505200024 | 77 | 91 | 0.9 | 0.9 | 0.00 | 0.00 | 0.00 | 52 | 1017.2 |
| 20260505195520 | 77 | 225 | 2.6 | 4.3 | 0.00 | 0.00 | 0.00 | 52 | 1017.2 |
| 20260505195018 | 78 | 226 | 0.9 | 1.7 | 0.00 | 0.00 | 0.00 | 53 | 1017.2 |
| 20260505194515 | 78 | 113 | 1.7 | 2.6 | 0.00 | 0.00 | 0.00 | 52 | 1017.3 |
| 20260505194010 | 79 | 160 | 3.5 | 5.2 | 0.00 | 0.00 | 0.00 | 51 | 1017.5 |
| 20260505193508 | 79 | 45 | 2.6 | 4.3 | 0.00 | 0.00 | 0.00 | 50 | 1017.5 |
| 20260505193005 | 78 | 85 | 2.6 | 2.6 | 0.00 | 0.00 | 0.00 | 53 | 1018.0 |
| 20260505192503 | 78 | 88 | 0.9 | 1.7 | 0.00 | 0.00 | 0.00 | 52 | 1017.9 |
| 20260505192000 | 79 | 148 | 2.6 | 2.6 | 0.00 | 0.00 | 0.00 | 52 | 1018.0 |
| 20260505191459 | 78 | 121 | 0.9 | 1.7 | 0.00 | 0.00 | 0.00 | 53 | 1017.9 |
| 20260505190956 | 78 | 258 | 2.6 | 2.6 | 0.00 | 0.00 | 0.00 | 51 | 1018.1 |
| 20260505190450 | 79 | 120 | 0.9 | 1.7 | 0.00 | 0.00 | 0.00 | 52 | 1018.0 |
| 20260505185946 | 80 | 268 | 5.2 | 6.1 | 0.00 | 0.00 | 0.00 | 51 | 1018.2 |
| 20260505185444 | 80 | 82 | 0.0 | 0.9 | 0.00 | 0.00 | 0.00 | 51 | 1018.3 |
| 20260505184940 | 79 | 233 | 4.3 | 5.2 | 0.00 | 0.00 | 0.00 | 50 | 1018.2 |
| 20260505184437 | 79 | 171 | 4.3 | 5.2 | 0.00 | 0.00 | 0.00 | 48 | 1018.3 |
| 20260505183933 | 79 | 201 | 5.2 | 7.0 | 0.00 | 0.00 | 0.00 | 50 | 1018.2 |
| 20260505183430 | 80 | 93 | 1.7 | 1.7 | 0.00 | 0.00 | 0.00 | 48 | 1018.0 |
| 20260505182927 | 80 | 94 | 0.9 | 0.9 | 0.00 | 0.00 | 0.00 | 51 | 1018.1 |
| 20260505182424 | 79 | 141 | 2.6 | 4.3 | 0.00 | 0.00 | 0.00 | 49 | 1017.8 |
| 20260505181920 | 79 | 88 | 1.7 | 1.7 | 0.00 | 0.00 | 0.00 | 51 | 1017.8 |
| 20260505181418 | 79 | 126 | 3.5 | 4.3 | 0.00 | 0.00 | 0.00 | 49 | 1017.7 |
| 20260505180914 | 81 | 160 | 1.7 | 1.7 | 0.00 | 0.00 | 0.00 | 48 | 1017.9 |
| 20260505180411 | 79 | 68 | 1.7 | 1.7 | 0.00 | 0.00 | 0.00 | 50 | 1018.1 |
| 20260505175908 | 80 | 154 | 1.7 | 1.7 | 0.00 | 0.00 | 0.00 | 49 | 1017.9 |
| 20260505175404 | 79 | 79 | 0.9 | 0.9 | 0.00 | 0.00 | 0.00 | 51 | 1018.0 |
| 20260505174900 | 79 | 276 | 3.5 | 4.3 | 0.00 | 0.00 | 0.00 | 50 | 1018.0 |
| 20260505174358 | 79 | 114 | 2.6 | 2.6 | 0.00 | 0.00 | 0.00 | 50 | 1018.0 |
| 20260505173854 | 78 | 185 | 1.7 | 2.6 | 0.00 | 0.00 | 0.00 | 49 | 1017.9 |
| 20260505173350 | 80 | 211 | 3.5 | 8.7 | 0.00 | 0.00 | 0.00 | 46 | 1018.0 |
| 20260505172847 | 78 | 179 | 2.6 | 4.3 | 0.00 | 0.00 | 0.00 | 52 | 1017.7 |
| 20260505172345 | 79 | 208 | 2.6 | 2.6 | 0.00 | 0.00 | 0.00 | 50 | 1017.9 |
| 20260505171845 | 80 | 144 | 4.3 | 6.1 | 0.00 | 0.00 | 0.00 | 49 | 1018.1 |
| 20260505171342 | 80 | 47 | 0.9 | 1.7 | 0.00 | 0.00 | 0.00 | 50 | 1018.3 |
| 20260505170838 | 79 | 91 | 1.7 | 1.7 | 0.00 | 0.00 | 0.00 | 49 | 1018.4 |
| 20260505170335 | 79 | 133 | 1.7 | 1.7 | 0.00 | 0.00 | 0.00 | 50 | 1018.3 |
| 20260505165831 | 79 | 116 | 0.9 | 1.7 | 0.00 | 0.00 | 0.00 | 51 | 1018.4 |
| 20260505165326 | 78 | 115 | 1.7 | 1.7 | 0.00 | 0.00 | 0.00 | 51 | 1018.5 |
| 20260505164822 | 79 | 215 | 3.5 | 5.2 | 0.00 | 0.00 | 0.00 | 53 | 1018.4 |
| 20260505164319 | 78 | 80 | 0.9 | 0.9 | 0.00 | 0.00 | 0.00 | 52 | 1018.8 |
| 20260505163818 | 78 | 209 | 3.5 | 5.2 | 0.00 | 0.00 | 0.00 | 52 | 1018.9 |
| 20260505163316 | 77 | 117 | 1.7 | 1.7 | 0.00 | 0.00 | 0.00 | 53 | 1018.6 |
| 20260505162814 | 78 | 35 | 2.6 | 2.6 | 0.00 | 0.00 | 0.00 | 51 | 1018.8 |
| 20260505162310 | 78 | 96 | 1.7 | 1.7 | 0.00 | 0.00 | 0.00 | 51 | 1018.6 |
| 20260505161807 | 78 | 198 | 2.6 | 2.6 | 0.00 | 0.00 | 0.00 | 52 | 1018.9 |
| 20260505161304 | 78 | 231 | 2.6 | 2.6 | 0.00 | 0.00 | 0.00 | 53 | 1018.8 |
| 20260505160802 | 77 | 84 | 0.9 | 0.9 | 0.00 | 0.00 | 0.00 | 52 | 1018.8 |
| 20260505160259 | 77 | 157 | 0.9 | 1.7 | 0.00 | 0.00 | 0.00 | 55 | 1019.0 |
| 20260505153238 | 77 | 90 | 1.7 | 1.7 | 0.00 | 0.00 | 0.00 | 58 | 1019.1 |
| 20260505152735 | 77 | 112 | 2.6 | 2.6 | 0.00 | 0.00 | 0.00 | 57 | 1019.1 |
| 20260505152231 | 76 | 139 | 1.7 | 1.7 | 0.00 | 0.00 | 0.00 | 56 | 1019.0 |
| 20260505151726 | 77 | 107 | 1.7 | 1.7 | 0.00 | 0.00 | 0.00 | 58 | 1018.9 |
| 20260505151224 | 77 | 104 | 1.7 | 1.7 | 0.00 | 0.00 | 0.00 | 59 | 1019.0 |
| 20260505150720 | 77 | 104 | 0.0 | 0.9 | 0.00 | 0.00 | 0.00 | 59 | 1019.1 |
| 20260505150217 | 75 | 138 | 0.9 | 1.7 | 0.00 | 0.00 | 0.00 | 61 | 1019.0 |
| 20260505140645 | 74 | 110 | 0.0 | 0.9 | 0.00 | 0.00 | 0.00 | 64 | 1018.9 |
| 20260505140142 | 73 | 57 | 1.7 | 1.7 | 0.00 | 0.00 | 0.00 | 64 | 1019.0 |
| 20260505130106 | 69 | 87 | 0.0 | 0.9 | 0.00 | 0.00 | 0.00 | 73 | 1018.6 |
| 20260505124555 | 68 | 95 | 0.9 | 0.9 | 0.00 | 0.00 | 0.00 | 76 | 1018.6 |
| 20260505124051 | 67 | 102 | 0.9 | 0.9 | 0.00 | 0.00 | 0.00 | 78 | 1018.6 |
| 20260505123548 | 67 | 93 | 0.0 | 0.9 | 0.00 | 0.00 | 0.00 | 78 | 1018.8 |
| 20260505123044 | 66 | 115 | 0.9 | 0.9 | 0.00 | 0.00 | 0.00 | 79 | 1018.7 |
| 20260505122541 | 67 | 111 | 0.9 | 0.9 | 0.00 | 0.00 | 0.00 | 79 | 1018.6 |
| 20260505122038 | 67 | 79 | 0.0 | 0.0 | 0.00 | 0.00 | 0.00 | 80 | 1018.8 |
| 20260505121535 | 66 | 79 | 0.0 | 0.0 | 0.00 | 0.00 | 0.00 | 84 | 1018.9 |
| 20260505121032 | 64 | 79 | 0.0 | 0.0 | 0.00 | 0.00 | 0.00 | 89 | 1018.7 |
| 20260505120528 | 63 | 79 | 0.0 | 0.0 | 0.00 | 0.00 | 0.00 | 94 | 1018.6 |
| 20260505120023 | 63 | 78 | 0.0 | 0.0 | 0.00 | 0.00 | 0.00 | 97 | 1018.5 |
| 20260505115518 | 60 | 78 | 0.0 | 0.0 | 0.00 | 0.00 | 0.00 | 99 | 1018.7 |
| 20260505115016 | 59 | 78 | 0.0 | 0.0 | 0.00 | 0.00 | 0.00 | 99 | 1018.6 |
| 20260505114513 | 56 | 78 | 0.0 | 0.0 | 0.00 | 0.00 | 0.00 | 99 | 1018.6 |
| 20260505114009 | 55 | 77 | 0.0 | 0.0 | 0.00 | 0.00 | 0.00 | 99 | 1018.6 |
| 20260505113506 | 55 | 83 | 0.0 | 0.0 | 0.00 | 0.00 | 0.00 | 99 | 1018.3 |
| 20260505113002 | 55 | 83 | 0.0 | 0.0 | 0.00 | 0.00 | 0.00 | 99 | 1018.4 |
| 20260505112459 | 54 | 83 | 0.0 | 0.0 | 0.00 | 0.00 | 0.00 | 98 | 1018.4 |
| 20260505111956 | 54 | 83 | 0.0 | 0.0 | 0.00 | 0.00 | 0.00 | 98 | 1018.2 |
| 20260505111450 | 54 | 83 | 0.0 | 0.0 | 0.00 | 0.00 | 0.00 | 99 | 1018.5 |
| 20260505110946 | 54 | 86 | 0.0 | 0.0 | 0.00 | 0.00 | 0.00 | 98 | 1018.2 |
| 20260505110443 | 54 | 90 | 0.0 | 0.0 | 0.00 | 0.00 | 0.00 | 98 | 1018.3 |
| 20260505101914 | 52 | 90 | 0.0 | 0.0 | 0.00 | 0.00 | 0.00 | 98 | 1017.5 |
| 20260505101409 | 52 | 90 | 0.0 | 0.0 | 0.00 | 0.00 | 0.00 | 98 | 1017.4 |
| 20260505100905 | 53 | 90 | 0.0 | 0.0 | 0.00 | 0.00 | 0.00 | 98 | 1017.4 |
| 20260505100402 | 53 | 90 | 0.0 | 0.0 | 0.00 | 0.00 | 0.00 | 98 | 1017.6 |
| 20260505095857 | 53 | 90 | 0.0 | 0.0 | 0.00 | 0.00 | 0.00 | 98 | 1017.4 |
| 20260505095355 | 53 | 90 | 0.0 | 0.0 | 0.00 | 0.00 | 0.00 | 98 | 1017.4 |
| 20260505094851 | 53 | 90 | 0.0 | 0.0 | 0.00 | 0.00 | 0.00 | 98 | 1017.6 |
| 20260505094348 | 53 | 90 | 0.0 | 0.0 | 0.00 | 0.00 | 0.00 | 97 | 1017.5 |
| 20260505093843 | 53 | 90 | 0.0 | 0.0 | 0.00 | 0.00 | 0.00 | 97 | 1017.4 |
| 20260505093341 | 53 | 90 | 0.0 | 0.0 | 0.00 | 0.00 | 0.00 | 97 | 1017.5 |
| 20260505092838 | 53 | 90 | 0.0 | 0.0 | 0.00 | 0.00 | 0.00 | 97 | 1017.4 |
| 20260505092337 | 53 | 90 | 0.0 | 0.0 | 0.00 | 0.00 | 0.00 | 97 | 1017.2 |
| 20260505091833 | 53 | 90 | 0.0 | 0.0 | 0.00 | 0.00 | 0.00 | 97 | 1017.1 |
| 20260505091331 | 53 | 90 | 0.0 | 0.0 | 0.00 | 0.00 | 0.00 | 97 | 1017.4 |
| 20260505090829 | 53 | 90 | 0.0 | 0.0 | 0.00 | 0.00 | 0.00 | 97 | 1017.3 |
| 20260505090327 | 54 | 90 | 0.0 | 0.0 | 0.00 | 0.00 | 0.00 | 97 | 1017.2 |
| 20260505085824 | 54 | 90 | 0.0 | 0.0 | 0.00 | 0.00 | 0.00 | 97 | 1017.2 |
| 20260505085322 | 54 | 90 | 0.0 | 0.0 | 0.00 | 0.00 | 0.00 | 97 | 1017.3 |
| 20260505084819 | 54 | 90 | 0.0 | 0.0 | 0.00 | 0.00 | 0.00 | 97 | 1017.0 |
| 20260505084318 | 54 | 90 | 0.0 | 0.0 | 0.00 | 0.00 | 0.00 | 97 | 1017.3 |
| 20260505083814 | 54 | 90 | 0.0 | 0.0 | 0.00 | 0.00 | 0.00 | 96 | 1017.1 |
| 20260505083312 | 54 | 90 | 0.0 | 0.0 | 0.00 | 0.00 | 0.00 | 96 | 1017.0 |
| 20260505082808 | 54 | 90 | 0.0 | 0.0 | 0.00 | 0.00 | 0.00 | 96 | 1017.0 |
| 20260505082305 | 54 | 90 | 0.0 | 0.0 | 0.00 | 0.00 | 0.00 | 96 | 1017.1 |
| 20260505081801 | 54 | 90 | 0.0 | 0.0 | 0.00 | 0.00 | 0.00 | 96 | 1016.8 |
| 20260505081258 | 54 | 90 | 0.0 | 0.0 | 0.00 | 0.00 | 0.00 | 96 | 1016.7 |
| 20260505080754 | 54 | 90 | 0.0 | 0.0 | 0.00 | 0.00 | 0.00 | 96 | 1016.8 |
| 20260505080250 | 54 | 90 | 0.0 | 0.0 | 0.00 | 0.00 | 0.00 | 96 | 1016.9 |
| 20260505075746 | 54 | 90 | 0.0 | 0.0 | 0.00 | 0.00 | 0.00 | 96 | 1016.8 |
| 20260505075244 | 54 | 90 | 0.0 | 0.0 | 0.00 | 0.00 | 0.00 | 96 | 1016.7 |
| 20260505074741 | 54 | 90 | 0.0 | 0.0 | 0.00 | 0.00 | 0.00 | 96 | 1016.6 |
| 20260505074238 | 54 | 90 | 0.0 | 0.0 | 0.00 | 0.00 | 0.00 | 95 | 1016.7 |
| 20260505073736 | 54 | 90 | 0.0 | 0.0 | 0.00 | 0.00 | 0.00 | 95 | 1016.7 |
| 20260505073233 | 54 | 90 | 0.0 | 0.0 | 0.00 | 0.00 | 0.00 | 95 | 1016.6 |
| 20260505072729 | 54 | 90 | 0.0 | 0.0 | 0.00 | 0.00 | 0.00 | 95 | 1016.8 |
| 20260505072226 | 55 | 90 | 0.0 | 0.0 | 0.00 | 0.00 | 0.00 | 95 | 1016.9 |
| 20260505071721 | 55 | 90 | 0.0 | 0.0 | 0.00 | 0.00 | 0.00 | 95 | 1016.8 |
| 20260505071219 | 54 | 90 | 0.0 | 0.0 | 0.00 | 0.00 | 0.00 | 95 | 1016.8 |
| 20260505070716 | 54 | 90 | 0.0 | 0.0 | 0.00 | 0.00 | 0.00 | 94 | 1016.4 |
| 20260505070212 | 54 | 90 | 0.0 | 0.0 | 0.00 | 0.00 | 0.00 | 94 | 1016.9 |
| 20260505065708 | 54 | 90 | 0.0 | 0.0 | 0.00 | 0.00 | 0.00 | 94 | 1017.0 |
| 20260505065205 | 54 | 90 | 0.0 | 0.0 | 0.00 | 0.00 | 0.00 | 94 | 1017.0 |
| 20260505064702 | 55 | 90 | 0.0 | 0.0 | 0.00 | 0.00 | 0.00 | 94 | 1016.9 |
| 20260505064200 | 55 | 90 | 0.0 | 0.0 | 0.00 | 0.00 | 0.00 | 94 | 1017.0 |
| 20260505063657 | 55 | 90 | 0.0 | 0.0 | 0.00 | 0.00 | 0.00 | 94 | 1017.0 |
| 20260505063153 | 55 | 90 | 0.0 | 0.0 | 0.00 | 0.00 | 0.00 | 93 | 1017.1 |
| 20260505062649 | 55 | 90 | 0.0 | 0.0 | 0.00 | 0.00 | 0.00 | 93 | 1017.2 |
| 20260505062147 | 55 | 90 | 0.0 | 0.0 | 0.00 | 0.00 | 0.00 | 93 | 1017.1 |
| 20260505061644 | 55 | 90 | 0.0 | 0.0 | 0.00 | 0.00 | 0.00 | 93 | 1017.4 |
| 20260505061142 | 55 | 90 | 0.0 | 0.0 | 0.00 | 0.00 | 0.00 | 93 | 1017.3 |
| 20260505060639 | 55 | 90 | 0.0 | 0.0 | 0.00 | 0.00 | 0.00 | 92 | 1017.5 |
| 20260505060136 | 55 | 90 | 0.0 | 0.0 | 0.00 | 0.00 | 0.00 | 92 | 1017.5 |
| 20260505055631 | 55 | 90 | 0.0 | 0.0 | 0.00 | 0.00 | 0.00 | 92 | 1017.6 |
| 20260505055128 | 55 | 90 | 0.0 | 0.0 | 0.00 | 0.00 | 0.00 | 92 | 1017.6 |
| 20260505054626 | 55 | 90 | 0.0 | 0.0 | 0.00 | 0.00 | 0.00 | 91 | 1017.9 |
| 20260505054124 | 55 | 90 | 0.0 | 0.0 | 0.00 | 0.00 | 0.00 | 91 | 1017.8 |
| 20260505053621 | 55 | 90 | 0.0 | 0.0 | 0.00 | 0.00 | 0.00 | 91 | 1017.8 |
| 20260505053117 | 56 | 91 | 0.0 | 0.0 | 0.00 | 0.00 | 0.00 | 91 | 1018.0 |
| 20260505052614 | 56 | 91 | 0.0 | 0.0 | 0.00 | 0.00 | 0.00 | 91 | 1018.0 |
| 20260505052112 | 56 | 92 | 0.0 | 0.0 | 0.00 | 0.00 | 0.00 | 90 | 1018.2 |
| 20260505051608 | 56 | 90 | 0.0 | 0.0 | 0.00 | 0.00 | 0.00 | 90 | 1018.0 |
| 20260505051107 | 56 | 90 | 0.0 | 0.0 | 0.00 | 0.00 | 0.00 | 90 | 1018.1 |
| 20260505050604 | 56 | 90 | 0.0 | 0.0 | 0.00 | 0.00 | 0.00 | 89 | 1018.3 |
| 20260505041532 | 57 | 91 | 0.0 | 0.0 | 0.00 | 0.00 | 0.00 | 86 | 1017.9 |
| 20260505041029 | 57 | 91 | 0.0 | 0.0 | 0.00 | 0.00 | 0.00 | 86 | 1018.2 |
| 20260505040526 | 57 | 91 | 0.0 | 0.0 | 0.00 | 0.00 | 0.00 | 86 | 1017.9 |
| 20260505040024 | 57 | 87 | 0.0 | 0.0 | 0.00 | 0.00 | 0.00 | 85 | 1018.1 |
| 20260505035519 | 57 | 85 | 0.0 | 0.0 | 0.00 | 0.00 | 0.00 | 85 | 1018.3 |
| 20260505035016 | 57 | 85 | 0.0 | 0.0 | 0.00 | 0.00 | 0.00 | 85 | 1018.2 |
| 20260505034513 | 57 | 85 | 0.0 | 0.0 | 0.00 | 0.00 | 0.00 | 84 | 1018.2 |
| 20260505034010 | 58 | 86 | 0.0 | 0.0 | 0.00 | 0.00 | 0.00 | 84 | 1018.1 |
| 20260505033507 | 58 | 85 | 0.0 | 0.0 | 0.00 | 0.00 | 0.00 | 83 | 1018.1 |
| 20260505033005 | 58 | 85 | 0.0 | 0.0 | 0.00 | 0.00 | 0.00 | 82 | 1018.0 |
| 20260505032502 | 58 | 85 | 0.0 | 0.0 | 0.00 | 0.00 | 0.00 | 82 | 1018.1 |
| 20260505031958 | 58 | 85 | 0.0 | 0.0 | 0.00 | 0.00 | 0.00 | 82 | 1018.2 |
| 20260505031455 | 58 | 85 | 0.0 | 0.0 | 0.00 | 0.00 | 0.00 | 82 | 1018.4 |
| 20260505030952 | 59 | 85 | 0.0 | 0.0 | 0.00 | 0.00 | 0.00 | 81 | 1018.1 |
| 20260505030448 | 59 | 85 | 0.0 | 0.0 | 0.00 | 0.00 | 0.00 | 81 | 1018.1 |
| 20260505025943 | 59 | 81 | 0.0 | 0.0 | 0.00 | 0.00 | 0.00 | 80 | 1018.1 |
| 20260505025441 | 59 | 91 | 0.0 | 0.0 | 0.00 | 0.00 | 0.00 | 79 | 1018.2 |
| 20260505024940 | 59 | 91 | 0.0 | 0.0 | 0.00 | 0.00 | 0.00 | 78 | 1018.1 |
| 20260505024437 | 60 | 91 | 0.0 | 0.0 | 0.00 | 0.00 | 0.00 | 78 | 1018.0 |
| 20260505023934 | 60 | 92 | 0.0 | 0.0 | 0.00 | 0.00 | 0.00 | 77 | 1018.0 |
| 20260505023431 | 60 | 92 | 0.0 | 0.0 | 0.00 | 0.00 | 0.00 | 77 | 1017.9 |
| 20260505022928 | 60 | 92 | 0.0 | 0.0 | 0.00 | 0.00 | 0.00 | 76 | 1017.8 |
| 20260505022426 | 60 | 92 | 0.0 | 0.0 | 0.00 | 0.00 | 0.00 | 76 | 1017.9 |
| 20260505021922 | 60 | 92 | 0.0 | 0.0 | 0.00 | 0.00 | 0.00 | 75 | 1018.0 |
| 20260505021419 | 60 | 92 | 0.0 | 0.0 | 0.00 | 0.00 | 0.00 | 74 | 1018.0 |
| 20260505020915 | 61 | 92 | 0.0 | 0.0 | 0.00 | 0.00 | 0.00 | 74 | 1018.0 |
| 20260505020410 | 61 | 92 | 0.0 | 0.0 | 0.00 | 0.00 | 0.00 | 73 | 1017.9 |
| 20260505015908 | 61 | 92 | 0.0 | 0.0 | 0.00 | 0.00 | 0.00 | 72 | 1017.8 |
| 20260505015405 | 62 | 91 | 0.0 | 0.0 | 0.00 | 0.00 | 0.00 | 72 | 1017.8 |
| 20260505014902 | 62 | 92 | 0.0 | 0.0 | 0.00 | 0.00 | 0.00 | 71 | 1018.0 |
| 20260505014359 | 62 | 92 | 0.0 | 0.0 | 0.00 | 0.00 | 0.00 | 70 | 1017.8 |
| 20260505013855 | 62 | 92 | 0.0 | 0.0 | 0.00 | 0.00 | 0.00 | 70 | 1017.9 |
| 20260505013352 | 62 | 92 | 0.0 | 0.0 | 0.00 | 0.00 | 0.00 | 70 | 1017.9 |
| 20260505012851 | 63 | 92 | 0.0 | 0.0 | 0.00 | 0.00 | 0.00 | 69 | 1017.8 |
| 20260505012349 | 63 | 92 | 0.0 | 0.0 | 0.00 | 0.00 | 0.00 | 67 | 1017.9 |
| 20260505011844 | 63 | 92 | 0.0 | 0.0 | 0.00 | 0.00 | 0.00 | 66 | 1018.0 |
| 20260505011341 | 64 | 92 | 0.0 | 0.0 | 0.00 | 0.00 | 0.00 | 65 | 1017.8 |
| 20260505010837 | 64 | 95 | 0.0 | 0.0 | 0.00 | 0.00 | 0.00 | 64 | 1017.8 |
| 20260505010333 | 64 | 93 | 0.0 | 0.0 | 0.00 | 0.00 | 0.00 | 64 | 1017.6 |
| 20260505005830 | 64 | 93 | 0.0 | 0.0 | 0.00 | 0.00 | 0.00 | 64 | 1017.7 |
| 20260505005327 | 64 | 96 | 0.0 | 0.0 | 0.00 | 0.00 | 0.00 | 63 | 1017.7 |
| 20260505004824 | 65 | 92 | 0.0 | 0.0 | 0.00 | 0.00 | 0.00 | 62 | 1017.7 |
| 20260505004320 | 65 | 92 | 0.0 | 0.0 | 0.00 | 0.00 | 0.00 | 60 | 1017.5 |
| 20260505003818 | 66 | 92 | 0.0 | 0.0 | 0.00 | 0.00 | 0.00 | 60 | 1017.5 |
| 20260505003315 | 66 | 92 | 0.0 | 0.0 | 0.00 | 0.00 | 0.00 | 59 | 1017.4 |
| 20260505002811 | 67 | 92 | 0.0 | 0.0 | 0.00 | 0.00 | 0.00 | 58 | 1017.3 |
| 20260505002308 | 67 | 92 | 0.0 | 0.0 | 0.00 | 0.00 | 0.00 | 57 | 1017.4 |
| 20260505001806 | 67 | 93 | 0.0 | 0.0 | 0.00 | 0.00 | 0.00 | 56 | 1017.3 |
| 20260505001303 | 68 | 87 | 0.0 | 0.0 | 0.00 | 0.00 | 0.00 | 55 | 1017.5 |
| 20260505000800 | 68 | 153 | 1.7 | 1.7 | 0.00 | 0.00 | 0.00 | 54 | 1017.3 |
| 20260505000258 | 68 | 146 | 1.7 | 1.7 | 0.00 | 0.00 | 0.00 | 53 | 1017.3 |
| 20260504235754 | 69 | 127 | 0.9 | 1.7 | 0.00 | 0.00 | 0.00 | 53 | 1017.4 |
| 20260504235250 | 69 | 85 | 0.0 | 0.0 | 0.00 | 0.00 | 0.00 | 52 | 1017.4 |
| 20260504234748 | 69 | 93 | 1.7 | 1.7 | 0.00 | 0.00 | 0.00 | 51 | 1017.4 |
| 20260504234245 | 69 | 197 | 1.7 | 1.7 | 0.00 | 0.00 | 0.00 | 50 | 1017.5 |
| 20260504233741 | 70 | 139 | 0.9 | 0.9 | 0.00 | 0.00 | 0.00 | 50 | 1017.5 |
| 20260504233237 | 70 | 115 | 1.7 | 1.7 | 0.00 | 0.00 | 0.00 | 50 | 1017.2 |
| 20260504232734 | 70 | 126 | 1.7 | 1.7 | 0.00 | 0.00 | 0.00 | 50 | 1017.3 |
| 20260504232231 | 70 | 113 | 0.9 | 0.9 | 0.00 | 0.00 | 0.00 | 50 | 1017.1 |
| 20260504231728 | 71 | 198 | 2.6 | 5.2 | 0.00 | 0.00 | 0.00 | 49 | 1017.1 |
| 20260504231224 | 71 | 226 | 2.6 | 4.3 | 0.00 | 0.00 | 0.00 | 50 | 1017.2 |
| 20260504230720 | 71 | 168 | 2.6 | 2.6 | 0.00 | 0.00 | 0.00 | 50 | 1017.1 |
| 20260504230220 | 71 | 112 | 0.9 | 0.9 | 0.00 | 0.00 | 0.00 | 50 | 1017.4 |
| 20260504225718 | 71 | 74 | 0.9 | 1.7 | 0.00 | 0.00 | 0.00 | 50 | 1017.1 |
| 20260504225214 | 72 | 100 | 0.9 | 1.7 | 0.00 | 0.00 | 0.00 | 50 | 1017.0 |
| 20260504224711 | 72 | 88 | 0.0 | 0.9 | 0.00 | 0.00 | 0.00 | 50 | 1017.2 |
| 20260504224209 | 72 | 92 | 0.0 | 0.9 | 0.00 | 0.00 | 0.00 | 51 | 1017.0 |
| 20260504223704 | 72 | 203 | 2.6 | 2.6 | 0.00 | 0.00 | 0.00 | 50 | 1017.0 |
| 20260504223200 | 72 | 156 | 1.7 | 2.6 | 0.00 | 0.00 | 0.00 | 50 | 1017.2 |
| 20260504222657 | 72 | 303 | 2.6 | 2.6 | 0.00 | 0.00 | 0.00 | 51 | 1017.3 |
| 20260504222154 | 72 | 105 | 1.7 | 1.7 | 0.00 | 0.00 | 0.00 | 51 | 1017.1 |
| 20260504221651 | 72 | 179 | 1.7 | 1.7 | 0.00 | 0.00 | 0.00 | 50 | 1017.3 |
| 20260504221149 | 73 | 104 | 2.6 | 5.2 | 0.00 | 0.00 | 0.00 | 50 | 1017.0 |
| 20260504220645 | 73 | 189 | 3.5 | 5.2 | 0.00 | 0.00 | 0.00 | 50 | 1017.3 |
| 20260504220143 | 73 | 148 | 1.7 | 2.6 | 0.00 | 0.00 | 0.00 | 49 | 1017.1 |
| 20260504215638 | 73 | 141 | 2.6 | 4.3 | 0.00 | 0.00 | 0.00 | 49 | 1017.1 |
| 20260504215136 | 74 | 181 | 5.2 | 6.1 | 0.00 | 0.00 | 0.00 | 49 | 1017.0 |
| 20260504214632 | 74 | 170 | 2.6 | 4.3 | 0.00 | 0.00 | 0.00 | 49 | 1016.9 |
| 20260504214128 | 74 | 97 | 0.0 | 0.9 | 0.00 | 0.00 | 0.00 | 49 | 1017.0 |
| 20260504213625 | 74 | 231 | 3.5 | 6.1 | 0.00 | 0.00 | 0.00 | 48 | 1016.9 |
| 20260504213122 | 74 | 15 | 1.7 | 1.7 | 0.00 | 0.00 | 0.00 | 48 | 1016.9 |
| 20260504212618 | 75 | 181 | 4.3 | 6.1 | 0.00 | 0.00 | 0.00 | 47 | 1016.6 |
| 20260504212115 | 75 | 83 | 1.7 | 2.6 | 0.00 | 0.00 | 0.00 | 47 | 1017.1 |
| 20260504211612 | 75 | 161 | 3.5 | 4.3 | 0.00 | 0.00 | 0.00 | 46 | 1016.8 |
| 20260504211109 | 74 | 75 | 0.9 | 0.9 | 0.00 | 0.00 | 0.00 | 47 | 1016.9 |
| 20260504210607 | 74 | 180 | 5.2 | 6.1 | 0.00 | 0.00 | 0.00 | 46 | 1016.8 |
| 20260504205601 | 75 | 213 | 4.3 | 7.8 | 0.00 | 0.00 | 0.00 | 46 | 1016.8 |
| 20260504205058 | 75 | 187 | 1.7 | 2.6 | 0.00 | 0.00 | 0.00 | 45 | 1016.7 |
| 20260504204556 | 75 | 91 | 0.9 | 0.9 | 0.00 | 0.00 | 0.00 | 46 | 1016.9 |
| 20260504204055 | 75 | 79 | 0.9 | 1.7 | 0.00 | 0.00 | 0.00 | 45 | 1016.9 |
| 20260504203553 | 75 | 154 | 2.6 | 4.3 | 0.00 | 0.00 | 0.00 | 45 | 1017.2 |
| 20260504203050 | 75 | 109 | 4.3 | 5.2 | 0.00 | 0.00 | 0.00 | 45 | 1017.0 |
| 20260504202545 | 77 | 252 | 4.3 | 6.1 | 0.00 | 0.00 | 0.00 | 45 | 1017.0 |
| 20260504202042 | 77 | 189 | 4.3 | 7.0 | 0.00 | 0.00 | 0.00 | 43 | 1016.9 |
| 20260504201539 | 78 | 106 | 3.5 | 4.3 | 0.00 | 0.00 | 0.00 | 42 | 1017.0 |